星链-30068 (STARLINK-30068 )

导读 | 豆包AI

STARLINK-30068是美国SpaceX公司星链(Starlink)星座组网卫星,于2023年5月19日发射入轨,属于星链第二代卫星组网批次。该卫星运行于近地轨道,配备相控阵天线与氪离子推进系统,可支持全球低延迟高速卫星互联网服务,属于SpaceX大规模星座部署的一部分,助力实现全球偏远地区宽带覆盖,卫星退役后会在大气层主动销毁,减少空间碎片影响。

Basic Information
目录编号:
56698
目录名称:
STARLINK-30068
国际标识:
2023-067L
轨道中心:
EARTH
卫星名称:
星链-30068
卫星全名:
星链-30068 (STARLINK-30068 )
卫星状态:
在轨 (已飞行1077 天)
发射日期:
2023-05-19 UTC
国别 :
美国 (US)
星等 :
--
Orbit Information
数据来源 国际轨道数据 AOE轨道数据
星历时间 2026-04-30T07:38:30+0800
16小时前
查看轨道信息
2026-04-26T05:00:00+0800
4天前
查看轨道信息
半长轴 6861.201km 6861.185km
偏心率 0.0001781 0.0002283
轨道倾角 43.006° 43.005°
近地点辐角 264.233° 240.594°
升交点赤经 330.196° 353.409°
平近点角 95.832° 170.588°
近地点 481.842km 481.481km
远地点 484.286km 484.615km
周期 94.267分钟 94.267分钟
每日圈数 15.275752 15.275805
Detailed Information
固有亮度:
5
最大亮度:
0.3
卫星平台:
Starlink v2.0 mini
覆盖范围:
全球
运营商:
太空探索技术公司
运营商所在国:
美国
制造商(研发单位):
太空探索技术公司
制造商所在国:
美国
使用方式:
暂无
Satellite Introduction
星链(Starlink)计划是由太空探索技术公司(SpaceX)提出的一个巨型低轨卫星互联网星座项目,计划在2019年至2024年间在太空搭建由约1.2万颗卫星组成的“星链”网络,其中1584颗将部署在地球上空550千米处的近地轨道,并从2020年开始工作。该卫星仍在工作。
2D Orbit Map
3D Orbit Map
Orbit Altitude Analysis Chart
Orbit Inclination Analysis Chart
Orbit Comprehensive Analysis Chart
View Comprehensive Chart